[[{"header":{"parameterUnit":"m.s-1","parameterCategory":1,"la1":30.2991,"la2":30.254,"lo1":-89.0895,"lo2":-89.0444,"dy":0.0017,"dx":0.0017,"nx":28,"ny":28,"refTime":"2024-08-19T09:00:00:Z","depth":0,"parameterNumber":2,"parameterNumberName":"U-component_of_WINDS"},"data":[0,0,0,0,0,0,0,0,0,0,0,0,0,0,0,0,0,0,0,0,0,0,0,0,0,0,0,0,0,0,0,0,0,0,0,0,0,0,0,0,0,0,0,0,0,0,0,0,0,0,0,0,0,0,0,0,0,0,-1.3938,-1.3938,0,-1.3933,-1.3933,-1.3933,-1.3892,-1.3891,-1.389,-1.3889,-1.3884,-1.3885,-1.3886,0,0,0,0,0,0,0,0,0,0,0,0,0,-1.3911,-1.3912,-1.3938,-1.3938,-1.3938,-1.3933,-1.3933,-1.3933,-1.3892,-1.3891,-1.389,-1.3889,-1.3884,-1.3885,-1.3886,0,0,0,0,0,0,0,0,0,0,0,0,0,-1.3916,-1.3912,-1.3938,-1.3917,-1.3915,-1.3933,-1.3933,-1.3933,-1.3893,-1.3891,-1.389,-1.3888,-1.3884,-1.3885,-1.3886,-1.3924,0,0,-1.389,-1.389,0,0,0,0,0,0,0,0,-1.3916,-1.3917,-1.392,-1.3919,-1.3916,-1.3912,-1.3922,-1.393,-1.3893,-1.3901,-1.3889,-1.3888,-1.3895,-1.3895,-1.3897,-1.3923,-1.3923,-1.389,-1.3891,-1.3891,-1.3891,0,0,0,0,0,0,0,-1.3916,-1.3917,-1.3936,-1.392,-1.3918,-1.3908,-1.3907,-1.3923,-1.3906,-1.39,-1.3897,-1.3897,-1.3893,-1.3896,-1.3897,-1.3923,-1.389,-1.3891,-1.3892,-1.3892,-1.3978,-1.3979,0,0,0,0,0,0,-1.3919,-1.3917,-1.3936,-1.3936,-1.3913,-1.3909,-1.3908,-1.3915,-1.3906,-1.3903,-1.3899,-1.3896,-1.3895,-1.3895,-1.3896,-1.3938,-1.3891,-1.3892,-1.3893,-1.3976,-1.3978,-1.398,0,0,0,0,0,0,-1.3918,-1.3921,-1.3936,-1.3926,-1.3927,-1.3911,-1.3919,-1.3915,-1.3918,-1.3905,-1.3902,-1.3905,-1.3894,-1.3895,-1.3917,-1.3938,-1.3893,-1.3894,-1.3974,-1.3977,-1.3979,-1.4023,0,0,0,0,0,0,-1.3918,-1.3921,-1.3935,-1.3926,-1.3928,-1.3957,-1.392,-1.3916,-1.392,-1.3916,-1.391,-1.3907,-1.3893,-1.3915,-1.3918,-1.3938,-1.3895,-1.3972,-1.3975,-1.3978,-1.402,-1.4027,-1.4033,0,0,0,0,0,-1.3917,-1.3948,-1.3936,-1.3939,-1.3946,-1.3958,-1.3959,-1.3942,-1.3922,-1.3936,-1.3927,-1.3907,-1.3935,-1.3918,-1.392,-1.3942,-1.3971,-1.3974,-1.3978,-1.4017,-1.4025,-1.4033,0,0,0,0,0,0,-1.3961,-1.3947,-1.3933,-1.3963,-1.3962,-1.3952,-1.3969,-1.3952,-1.3956,-1.3952,-1.393,-1.3929,-1.3954,-1.395,-1.3931,-1.3976,-1.3949,-1.3954,-1.3978,-1.3986,-1.3992,-1.3992,-1.3896,0,0,0,0,0,-1.3974,-1.3985,-1.3973,-1.4,-1.4001,-1.3985,-1.399,-1.3976,-1.3975,-1.3974,-1.3967,-1.3966,-1.3974,-1.398,-1.3987,-1.4019,-1.4016,-1.4035,-1.4042,-1.4047,-1.4051,-1.4065,-1.4073,-1.3991,-1.3991,-1.3991,0,0,-1.4001,-1.3995,-1.4004,-1.4009,-1.4007,-1.4019,-1.3985,-1.4,-1.4008,-1.3976,-1.3996,-1.3991,-1.3988,-1.4015,-1.4026,-1.4012,-1.4073,-1.4051,-1.4056,-1.4056,-1.407,-1.4078,-1.4085,-1.3993,-1.3993,-1.3993,0,0,-1.4056,-1.4054,-1.4075,-1.4073,-1.407,-1.4059,-1.4064,-1.4056,-1.4051,-1.4071,-1.4047,-1.4056,-1.4072,-1.407,-1.4071,-1.4124,-1.4105,-1.4127,-1.4161,-1.4176,-1.4182,-1.4188,-1.4205,-1.4212,-1.4131,-1.4131,-1.4131,0,-1.4091,-1.4108,-1.4089,-1.4104,-1.4107,-1.4078,-1.4099,-1.4098,-1.4098,-1.41,-1.4084,-1.4101,-1.4098,-1.4123,-1.4136,-1.4138,-1.4142,-1.4128,-1.4183,-1.4188,-1.4193,-1.421,-1.4217,-1.4134,-1.4134,-1.4133,-1.4133,0,-1.4149,-1.4162,-1.418,-1.4179,-1.4183,-1.4202,-1.4185,-1.4191,-1.4177,-1.4168,-1.4187,-1.4182,-1.4186,-1.4191,-1.4178,-1.4214,-1.4205,-1.4187,-1.4159,-1.4204,-1.4219,-1.4225,-1.4138,-1.4137,-1.4136,-1.4135,0,0,-1.4233,-1.422,-1.4227,-1.4225,-1.4219,-1.4228,-1.4245,-1.4248,-1.4254,-1.4254,-1.4267,-1.428,-1.4262,-1.4263,-1.425,-1.4263,-1.4303,-1.4242,-1.4242,-1.4253,-1.4341,-1.4354,-1.4362,-1.4291,-1.4292,-1.4293,-1.434,0,-1.4285,-1.4312,-1.4295,-1.4325,-1.4335,-1.4307,-1.4322,-1.4319,-1.431,-1.4317,-1.4308,-1.4317,-1.4293,-1.4294,-1.4306,-1.4296,-1.432,-1.4292,-1.4301,-1.4302,-1.4302,-1.437,-1.4384,-1.4429,-1.4346,-1.4347,-1.4348,0,-1.435,-1.4352,-1.4382,-1.4372,-1.4376,-1.4389,-1.439,-1.4398,-1.4394,-1.4386,-1.4387,-1.437,-1.4384,-1.4358,-1.4377,-1.4358,-1.4361,-1.4356,-1.4358,-1.4357,-1.4327,-1.4369,-1.4443,-1.4449,-1.4357,-1.4357,-1.4356,0,-1.4405,-1.4416,-1.4435,-1.4435,-1.4424,-1.4434,-1.443,-1.4424,-1.4427,-1.4428,-1.443,-1.4433,-1.4434,-1.4437,-1.442,-1.4402,-1.4441,-1.4413,-1.4435,-1.4435,-1.4443,-1.4443,-1.4517,-1.4447,-1.4447,-1.4447,-1.4447,0,-1.4465,-1.4484,-1.446,-1.4472,-1.4492,-1.4472,-1.4493,-1.4486,-1.4481,-1.449,-1.4467,-1.4476,-1.4454,-1.4461,-1.4448,-1.4465,-1.4466,-1.446,-1.4456,-1.4461,-1.4462,-1.4462,-1.4458,-1.4449,-1.4448,-1.4448,-1.4448,0,-1.453,-1.4515,-1.4534,-1.4521,-1.4519,-1.4534,-1.4524,-1.4534,-1.4523,-1.4535,-1.4537,-1.452,-1.4527,-1.4511,-1.4515,-1.4506,-1.453,-1.4522,-1.4531,-1.4528,-1.455,-1.4548,-1.4626,-1.4634,-1.4561,-1.4562,-1.4562,0,-1.4569,-1.4583,-1.4572,-1.4576,-1.4573,-1.4581,-1.4583,-1.4563,-1.4566,-1.4562,-1.4572,-1.4577,-1.4579,-1.4591,-1.4579,-1.4582,-1.4573,-1.46,-1.4573,-1.4577,-1.4571,-1.457,-1.4571,-1.4605,-1.4606,-1.4607,-1.4608,0,-1.4638,-1.4629,-1.4633,-1.4635,-1.4638,-1.4639,-1.4637,-1.4642,-1.4621,-1.4626,-1.4632,-1.4634,-1.4637,-1.4642,-1.4642,-1.4637,-1.4618,-1.4616,-1.4621,-1.4626,-1.463,-1.4626,-1.4545,-1.4614,-1.4614,-1.4613,-1.4613,-1.4613,-1.469,-1.47,-1.4693,-1.4699,-1.4695,-1.4694,-1.4702,-1.4692,-1.4697,-1.4698,-1.4686,-1.4695,-1.4689,-1.4687,-1.4684,-1.4689,-1.4677,-1.4684,-1.4686,-1.4688,-1.4691,-1.463,-1.469,-1.4689,-1.4689,-1.4689,-1.4689,0,-1.4756,-1.475,-1.4755,-1.4753,-1.4757,-1.4739,-1.4736,-1.4741,-1.4748,-1.4744,-1.4747,-1.4753,-1.4757,-1.4745,-1.4747,-1.4753,-1.4745,-1.4754,-1.4753,-1.4752,-1.4703,-1.4697,-1.4761,-1.4761,-1.4761,-1.4761,-1.4761,-1.4761,-1.4791,-1.4807,-1.4798,-1.4812,-1.4805,-1.4813,-1.4813,-1.4811,-1.4807,-1.4815,-1.4818,-1.481,-1.4803,-1.4803,-1.4806,-1.4802,-1.4803,-1.4815,-1.4809,-1.4763,-1.4756,-1.4749,-1.4744,-1.4816,-1.4816,-1.4857,-1.4858,-1.4858]},{"header":{"parameterUnit":"m.s-1","parameterCategory":1,"la1":30.2991,"la2":30.254,"lo1":-89.0895,"lo2":-89.0444,"dy":0.0017,"dx":0.0017,"nx":28,"ny":28,"refTime":"2024-08-19T09:00:00:Z","depth":0,"parameterNumber":3,"parameterNumberName":"V-component_of_WINDS"},"data":[0,0,0,0,0,0,0,0,0,0,0,0,0,0,0,0,0,0,0,0,0,0,0,0,0,0,0,0,0,0,0,0,0,0,0,0,0,0,0,0,0,0,0,0,0,0,0,0,0,0,0,0,0,0,0,0,0,0,-3.301,-3.301,0,-3.3054,-3.3054,-3.3055,-3.3026,-3.3024,-3.3023,-3.3022,-3.3063,-3.3066,-3.3068,0,0,0,0,0,0,0,0,0,0,0,0,0,-3.2898,-3.29,-3.301,-3.301,-3.3011,-3.3053,-3.3054,-3.3055,-3.3026,-3.3024,-3.3023,-3.3021,-3.3062,-3.3065,-3.3068,0,0,0,0,0,0,0,0,0,0,0,0,0,-3.2945,-3.2901,-3.301,-3.3002,-3.3002,-3.3053,-3.3054,-3.3055,-3.3026,-3.3024,-3.3022,-3.302,-3.3062,-3.3065,-3.3068,-3.3129,0,0,-3.3079,-3.3081,0,0,0,0,0,0,0,0,-3.2942,-3.2949,-3.3002,-3.3002,-3.3002,-3.3032,-3.303,-3.308,-3.3027,-3.3017,-3.3022,-3.3019,-3.3054,-3.3058,-3.3071,-3.3131,-3.3133,-3.3079,-3.3082,-3.3083,-3.3084,0,0,0,0,0,0,0,-3.2939,-3.2947,-3.3027,-3.3003,-3.3003,-3.2995,-3.2999,-3.3039,-3.3046,-3.3017,-3.3016,-3.3021,-3.3054,-3.3067,-3.3071,-3.3134,-3.3079,-3.3082,-3.3085,-3.3086,-3.3246,-3.3248,0,0,0,0,0,0,-3.2937,-3.2944,-3.3026,-3.3028,-3.2967,-3.2999,-3.3004,-3.3025,-3.3045,-3.3047,-3.3023,-3.302,-3.3062,-3.3067,-3.3073,-3.3145,-3.3083,-3.3086,-3.3088,-3.3244,-3.3246,-3.3249,0,0,0,0,0,0,-3.2935,-3.2944,-3.3024,-3.2986,-3.2995,-3.3003,-3.3026,-3.3026,-3.304,-3.305,-3.305,-3.3036,-3.3061,-3.3068,-3.3116,-3.3146,-3.3088,-3.3091,-3.3241,-3.3244,-3.3247,-3.329,0,0,0,0,0,0,-3.2931,-3.2944,-3.2968,-3.2987,-3.2998,-3.3067,-3.3028,-3.3029,-3.3046,-3.3043,-3.3062,-3.3063,-3.306,-3.3111,-3.3119,-3.315,-3.3094,-3.3238,-3.3243,-3.3246,-3.3286,-3.3294,-3.3301,0,0,0,0,0,-3.2928,-3.2977,-3.2969,-3.2979,-3.3028,-3.3069,-3.3075,-3.3071,-3.3049,-3.3073,-3.3079,-3.3062,-3.3142,-3.3116,-3.3125,-3.3157,-3.3236,-3.3241,-3.3246,-3.3282,-3.3292,-3.3301,0,0,0,0,0,0,-3.2961,-3.298,-3.2971,-3.3028,-3.3047,-3.3064,-3.3093,-3.3082,-3.3107,-3.3103,-3.3096,-3.3101,-3.3151,-3.3159,-3.313,-3.3217,-3.3185,-3.3192,-3.321,-3.3219,-3.3227,-3.3223,-3.3097,0,0,0,0,0,-3.2975,-3.3008,-3.3022,-3.3071,-3.3082,-3.3086,-3.3104,-3.31,-3.3119,-3.3126,-3.3136,-3.3154,-3.3183,-3.3202,-3.3229,-3.3287,-3.329,-3.3314,-3.3322,-3.3328,-3.3334,-3.3364,-3.3374,-3.3265,-3.3264,-3.3264,0,0,-3.3004,-3.3019,-3.3039,-3.3079,-3.3093,-3.3126,-3.3093,-3.3129,-3.3153,-3.3131,-3.3177,-3.3185,-3.3204,-3.3258,-3.3282,-3.3266,-3.3365,-3.3334,-3.3339,-3.3341,-3.337,-3.3381,-3.339,-3.3268,-3.3267,-3.3267,0,0,-3.3074,-3.3089,-3.3131,-3.3146,-3.3169,-3.3171,-3.3182,-3.32,-3.3205,-3.3251,-3.3235,-3.3263,-3.3313,-3.3328,-3.3341,-3.3417,-3.3403,-3.3426,-3.3466,-3.3496,-3.3505,-3.3512,-3.3538,-3.3548,-3.3432,-3.3432,-3.3432,0,-3.3107,-3.3157,-3.3154,-3.3192,-3.3209,-3.3192,-3.3234,-3.3248,-3.3278,-3.329,-3.3272,-3.3335,-3.3347,-3.3403,-3.3421,-3.3434,-3.3444,-3.3423,-3.3504,-3.3512,-3.3519,-3.3543,-3.3553,-3.3435,-3.3435,-3.3434,-3.3434,0,-3.3196,-3.3231,-3.3262,-3.3292,-3.3313,-3.3353,-3.3355,-3.3376,-3.337,-3.3375,-3.3421,-3.3436,-3.3465,-3.3478,-3.3472,-3.3533,-3.3523,-3.3505,-3.3473,-3.3532,-3.3555,-3.3564,-3.3439,-3.3438,-3.3437,-3.3436,0,0,-3.3286,-3.3315,-3.3326,-3.3339,-3.3363,-3.3389,-3.3428,-3.3458,-3.3476,-3.3497,-3.3528,-3.3572,-3.3555,-3.3571,-3.3567,-3.3594,-3.3652,-3.3572,-3.3573,-3.3586,-3.3718,-3.373,-3.3741,-3.3643,-3.3645,-3.3646,-3.3716,0,-3.3356,-3.3425,-3.3423,-3.3486,-3.3518,-3.3502,-3.3536,-3.3553,-3.3559,-3.3585,-3.3591,-3.3621,-3.3598,-3.3607,-3.3633,-3.3639,-3.3678,-3.3634,-3.367,-3.3672,-3.3665,-3.3754,-3.3767,-3.3832,-3.3725,-3.3727,-3.3728,0,-3.3447,-3.3472,-3.3538,-3.3557,-3.357,-3.3601,-3.3628,-3.3654,-3.3673,-3.3675,-3.3693,-3.3685,-3.3723,-3.3692,-3.3743,-3.3714,-3.3729,-3.3734,-3.3736,-3.3738,-3.3702,-3.3757,-3.3853,-3.3862,-3.3742,-3.3741,-3.374,0,-3.3504,-3.3555,-3.3601,-3.3613,-3.3636,-3.3658,-3.3669,-3.3686,-3.3704,-3.3728,-3.3739,-3.3767,-3.3781,-3.3802,-3.3801,-3.3778,-3.3853,-3.3822,-3.3855,-3.3855,-3.387,-3.3869,-3.3968,-3.3882,-3.3882,-3.3882,-3.3882,0,-3.3582,-3.3622,-3.3627,-3.3655,-3.37,-3.3698,-3.3743,-3.3751,-3.3767,-3.3796,-3.3784,-3.3811,-3.3809,-3.3836,-3.3836,-3.3878,-3.3885,-3.3887,-3.3886,-3.3887,-3.3887,-3.3895,-3.389,-3.3884,-3.3884,-3.3883,-3.3883,0,-3.3653,-3.3658,-3.3707,-3.3726,-3.3731,-3.3763,-3.3779,-3.3805,-3.381,-3.3846,-3.3855,-3.3862,-3.3893,-3.3895,-3.3931,-3.393,-3.3981,-3.3976,-3.3975,-3.3973,-3.4006,-3.4002,-3.4114,-3.4128,-3.4034,-3.4035,-3.4035,0,-3.3701,-3.3732,-3.3755,-3.3774,-3.3786,-3.3816,-3.3835,-3.3834,-3.3854,-3.3879,-3.3902,-3.3932,-3.3956,-3.4007,-3.4014,-3.4042,-3.4036,-3.4073,-3.404,-3.404,-3.4035,-3.4033,-3.4035,-3.4079,-3.408,-3.4081,-3.4082,0,-3.3786,-3.3787,-3.3814,-3.3843,-3.3866,-3.3888,-3.3909,-3.3925,-3.3927,-3.3949,-3.3982,-3.4001,-3.4038,-3.4068,-3.4095,-3.4104,-3.4093,-3.4093,-3.4102,-3.4102,-3.41,-3.41,-3.3991,-3.409,-3.4089,-3.4088,-3.4088,-3.4088,-3.3846,-3.3873,-3.3893,-3.3924,-3.394,-3.3959,-3.3985,-3.3993,-3.4021,-3.4051,-3.4049,-3.4085,-3.4103,-3.4138,-3.415,-3.4178,-3.4165,-3.4178,-3.4181,-3.4184,-3.4187,-3.4097,-3.4183,-3.4182,-3.4182,-3.4182,-3.4182,0,-3.3928,-3.3941,-3.397,-3.4,-3.4024,-3.4013,-3.4036,-3.4056,-3.4088,-3.4107,-3.4131,-3.4168,-3.4198,-3.4208,-3.4236,-3.4256,-3.4251,-3.4263,-3.4261,-3.4263,-3.4197,-3.4186,-3.4266,-3.4266,-3.4266,-3.4266,-3.4266,-3.4266,-3.3974,-3.4019,-3.4022,-3.4074,-3.4086,-3.4122,-3.4135,-3.4153,-3.4168,-3.421,-3.4235,-3.4242,-3.4257,-3.4286,-3.4313,-3.4315,-3.4325,-3.4339,-3.4339,-3.4276,-3.4268,-3.426,-3.4249,-3.4341,-3.4341,-3.4402,-3.4403,-3.4403]}]]